When you browse on this site, cookies collect data to enhance your experience and personalize the content and advertising you see.
Visit our Privacy Policy to learn more. By continuing to use the site, you agree to this use of cookies and data.
  • In Spain
  • List of Countries
  • For 7 days
  • Water Temperature
  • Satellite Maps
  • Weather Map
  • Weather Widgets
  • user-avatar
    Login

    Hourly Weather Tebriz

    Today, 18 January, Friday

    Time Temperature Precipitation Wind Pressure Humidity
    00:00 +1°C° 0.3 mm 1 mps 638 mmHg 81%
    01:00 +1°C° 0.3 mm 1 mps 639 mmHg 83%
    02:00 0°C° 0.3 mm 1 mps 639 mmHg 85%
    03:00 -5°C° 0 mm 5 mps 639 mmHg 84%
    04:00 -4°C° 0.2 mm 4 mps 640 mmHg 82%
    05:00 -4°C° 0.2 mm 3 mps 640 mmHg 80%
    06:00 -3°C° 0.2 mm 2 mps 641 mmHg 79%
    07:00 -3°C° 0.1 mm 2 mps 641 mmHg 76%
    08:00 -3°C° 0.1 mm 2 mps 642 mmHg 74%
    09:00 -3°C° 0 mm 2 mps 642 mmHg 70%
    10:00 -2°C° 0.1 mm 2 mps 642 mmHg 67%
    11:00 -2°C° 0.1 mm 2 mps 642 mmHg 65%
    12:00 -1°C° 0.1 mm 2 mps 643 mmHg 62%
    13:00 -1°C° 0 mm 2 mps 643 mmHg 61%
    14:00 -1°C° 0 mm 2 mps 643 mmHg 60%
    15:00 +1°C° 0 mm 1 mps 643 mmHg 59%
    16:00 +1°C° 0 mm 1 mps 643 mmHg 62%
    17:00 0°C° 0 mm 1 mps 643 mmHg 65%
    18:00 0°C° 0 mm 1 mps 643 mmHg 68%
    19:00 -1°C° 0 mm 1 mps 644 mmHg 69%
    20:00 -1°C° 0 mm 1 mps 644 mmHg 69%
    21:00 -1°C° 0 mm 1 mps 644 mmHg 70%
    22:00 -2°C° 0 mm 1 mps 644 mmHg 70%
    23:00 -2°C° 0 mm 1 mps 644 mmHg 69%

    Tomorrow, 19 January, Saturday

    Time Temperature Precipitation Wind Pressure Humidity
    00:00 -2°C° 0 mm 1 mps 644 mmHg 69%
    01:00 -2°C° 0 mm 1 mps 644 mmHg 68%
    02:00 -3°C° 0 mm 1 mps 644 mmHg 67%
    03:00 -3°C° 0 mm 1 mps 644 mmHg 66%
    04:00 -3°C° 0 mm 1 mps 644 mmHg 66%
    05:00 -3°C° 0 mm 1 mps 644 mmHg 65%
    06:00 -5°C° 0 mm 2 mps 644 mmHg 65%
    07:00 -5°C° 0 mm 2 mps 644 mmHg 63%
    08:00 -4°C° 0 mm 2 mps 644 mmHg 61%
    09:00 -3°C° 0 mm 2 mps 645 mmHg 59%
    10:00 -3°C° 0 mm 2 mps 644 mmHg 56%
    11:00 -2°C° 0 mm 3 mps 644 mmHg 54%
    12:00 -1°C° 0 mm 3 mps 644 mmHg 51%
    13:00 -1°C° 0 mm 3 mps 644 mmHg 51%
    14:00 -1°C° 0 mm 3 mps 644 mmHg 51%
    15:00 -1°C° 0 mm 3 mps 643 mmHg 51%
    16:00 -2°C° 0 mm 2 mps 643 mmHg 54%
    17:00 -2°C° 0 mm 2 mps 644 mmHg 57%
    18:00 -3°C° 0 mm 2 mps 644 mmHg 60%
    19:00 -4°C° 0 mm 2 mps 644 mmHg 60%
    20:00 -2°C° 0 mm 1 mps 644 mmHg 59%
    21:00 -2°C° 0 mm 1 mps 644 mmHg 58%
    22:00 -2°C° 0 mm 1 mps 645 mmHg 58%
    23:00 -2°C° 0 mm 1 mps 645 mmHg 57%

    Day after tomorrow, 20 January, Sunday

    Time Temperature Precipitation Wind Pressure Humidity
    00:00 -2°C° 0 mm 1 mps 645 mmHg 56%
    01:00 -2°C° 0 mm 1 mps 645 mmHg 58%
    02:00 -2°C° 0 mm 1 mps 645 mmHg 59%
    03:00 -3°C° 0 mm 1 mps 645 mmHg 60%
    04:00 -3°C° 0 mm 1 mps 645 mmHg 63%
    05:00 -3°C° 0 mm 1 mps 645 mmHg 65%
    06:00 -3°C° 0 mm 1 mps 645 mmHg 67%
    07:00 -2°C° 0 mm 1 mps 645 mmHg 67%
    08:00 -2°C° 0 mm 1 mps 646 mmHg 67%
    09:00 -1°C° 0 mm 1 mps 646 mmHg 66%
    10:00 0°C° 0 mm 1 mps 646 mmHg 63%
    11:00 -1°C° 0 mm 2 mps 646 mmHg 60%
    12:00 +1°C° 0 mm 2 mps 645 mmHg 57%
    13:00 +1°C° 0 mm 2 mps 645 mmHg 57%
    14:00 +1°C° 0 mm 2 mps 645 mmHg 56%
    15:00 +1°C° 0 mm 2 mps 645 mmHg 55%
    16:00 +1°C° 0 mm 1 mps 645 mmHg 59%
    17:00 0°C° 0 mm 1 mps 645 mmHg 64%
    18:00 -1°C° 0 mm 1 mps 645 mmHg 68%
    19:00 -1°C° 0 mm 1 mps 645 mmHg 67%
    20:00 -1°C° 0 mm 1 mps 646 mmHg 67%
    21:00 -1°C° 0 mm 1 mps 646 mmHg 66%
    22:00 -1°C° 0 mm 1 mps 646 mmHg 65%
    23:00 -1°C° 0 mm 1 mps 646 mmHg 64%

    21 January, Monday

    Time Temperature Precipitation Wind Pressure Humidity
    00:00 -2°C° 0 mm 1 mps 646 mmHg 62%
    01:00 -2°C° 0 mm 1 mps 646 mmHg 62%
    02:00 -2°C° 0 mm 1 mps 646 mmHg 61%
    03:00 -2°C° 0 mm 1 mps 646 mmHg 60%
    04:00 -2°C° 0 mm 1 mps 646 mmHg 60%
    05:00 -2°C° 0 mm 1 mps 645 mmHg 60%
    06:00 -2°C° 0 mm 1 mps 645 mmHg 60%
    07:00 -2°C° 0 mm 1 mps 645 mmHg 58%
    08:00 -1°C° 0 mm 1 mps 646 mmHg 56%
    09:00 -1°C° 0 mm 0 mps 646 mmHg 54%
    10:00 +1°C° 0 mm 1 mps 645 mmHg 52%
    11:00 +1°C° 0 mm 1 mps 645 mmHg 50%
    12:00 +1°C° 0 mm 2 mps 644 mmHg 48%
    13:00 +1°C° 0 mm 2 mps 644 mmHg 48%
    14:00 +2°C° 0 mm 2 mps 643 mmHg 48%
    15:00 +2°C° 0 mm 2 mps 643 mmHg 48%
    16:00 +2°C° 0 mm 1 mps 643 mmHg 51%
    17:00 +1°C° 0 mm 1 mps 643 mmHg 55%
    18:00 0°C° 0 mm 1 mps 643 mmHg 58%
    19:00 -1°C° 0 mm 1 mps 643 mmHg 58%
    20:00 -1°C° 0 mm 1 mps 643 mmHg 57%
    21:00 -1°C° 0 mm 1 mps 643 mmHg 56%
    22:00 -1°C° 0 mm 1 mps 643 mmHg 55%
    23:00 -1°C° 0 mm 1 mps 643 mmHg 53%

    22 January, Tuesday

    Time Temperature Precipitation Wind Pressure Humidity
    00:00 -1°C° 0 mm 1 mps 642 mmHg 51%
    01:00 -2°C° 0 mm 1 mps 642 mmHg 51%
    02:00 -4°C° 0 mm 2 mps 642 mmHg 51%
    03:00 -4°C° 0 mm 2 mps 642 mmHg 51%
    04:00 -4°C° 0 mm 2 mps 642 mmHg 53%
    05:00 -4°C° 0 mm 2 mps 642 mmHg 55%
    06:00 -4°C° 0 mm 2 mps 642 mmHg 57%
    07:00 -3°C° 0 mm 2 mps 642 mmHg 57%
    08:00 -4°C° 0 mm 3 mps 643 mmHg 57%
    09:00 -2°C° 0 mm 3 mps 643 mmHg 56%
    10:00 -1°C° 0 mm 3 mps 643 mmHg 53%
    11:00 -1°C° 0 mm 4 mps 642 mmHg 50%
    12:00 -1°C° 0 mm 4 mps 642 mmHg 46%
    13:00 -1°C° 0 mm 4 mps 642 mmHg 46%
    14:00 0°C° 0 mm 4 mps 642 mmHg 46%
    15:00 +1°C° 0 mm 3 mps 641 mmHg 46%
    16:00 0°C° 0 mm 3 mps 641 mmHg 48%
    17:00 -1°C° 0 mm 2 mps 642 mmHg 50%
    18:00 -2°C° 0 mm 2 mps 642 mmHg 52%
    19:00 -1°C° 0 mm 1 mps 642 mmHg 51%
    20:00 -1°C° 0 mm 1 mps 642 mmHg 50%
    21:00 -1°C° 0 mm 1 mps 642 mmHg 49%
    22:00 -1°C° 0 mm 1 mps 642 mmHg 49%
    23:00 -1°C° 0 mm 1 mps 642 mmHg 48%

    23 January, Wednesday

    Time Temperature Precipitation Wind Pressure Humidity
    00:00 -1°C° 0 mm 1 mps 642 mmHg 47%
    01:00 -1°C° 0 mm 1 mps 642 mmHg 48%
    02:00 -1°C° 0 mm 1 mps 642 mmHg 49%
    03:00 -1°C° 0 mm 1 mps 642 mmHg 50%
    04:00 -2°C° 0 mm 1 mps 642 mmHg 53%
    05:00 -3°C° 0 mm 0 mps 642 mmHg 56%
    06:00 -3°C° 0 mm 0 mps 642 mmHg 58%
    07:00 -2°C° 0 mm 0 mps 642 mmHg 60%
    08:00 -1°C° 0 mm 0 mps 643 mmHg 61%
    09:00 -1°C° 0 mm 0 mps 643 mmHg 62%
    10:00 +1°C° 0 mm 1 mps 643 mmHg 63%
    11:00 +2°C° 0 mm 1 mps 642 mmHg 63%
    12:00 +1°C° 0 mm 2 mps 642 mmHg 63%
    13:00 +2°C° 0 mm 2 mps 642 mmHg 63%
    14:00 +2°C° 0 mm 2 mps 642 mmHg 63%
    15:00 +2°C° 0 mm 2 mps 641 mmHg 62%
    16:00 +1°C° 0 mm 2 mps 642 mmHg 66%
    17:00 +1°C° 0 mm 1 mps 642 mmHg 70%
    18:00 +1°C° 0 mm 1 mps 642 mmHg 75%
    19:00 0°C° 0 mm 1 mps 642 mmHg 75%
    20:00 0°C° 0 mm 1 mps 642 mmHg 75%
    21:00 0°C° 0 mm 1 mps 643 mmHg 75%
    22:00 -1°C° 0 mm 0 mps 643 mmHg 74%
    23:00 -1°C° 0 mm 0 mps 643 mmHg 73%
    Show more